Regional Weather Roundup
Issued by NWS

Home | Current Version | Previous Version | Text Only | Print | Product List | Glossary Off
Versions: 1 2 3 4 5 6 7 8 9 10 11 12 13 14 15 16 17 18 19 20 21 22 23 24 25 26 27 28 29 30 31 32 33 34 35 36 37 38 39 40 41 42 43 44 45 46 47 48 49 50

000
ASUS43 KDTX 300301
RWRMI
MICHIGAN HOURLY REGIONAL WEATHER ROUNDUP
NATIONAL WEATHER SERVICE DETROIT/PONTIAC MI
1100 PM EDT FRI APR 29 2016

NOTE: "FAIR" INDICATES FEW OR NO CLOUDS BELOW 12,000 FEET WITH NO
SIGNIFICANT WEATHER AND/OR OBSTRUCTION TO VISIBILITY.

MIZ047>049-052>055-059>063-066>070-074>076-081>083-300400-
SOUTHEAST LOWER MICHIGAN

CITY           SKY/WX    TMP DP  RH WIND       PRES   REMARKS
ADRIAN         CLOUDY    47  38  71 SE6       30.17S
ALMA           CLEAR     39  37  92 CALM      30.18R
ANN ARBOR      CLOUDY    48  39  71 CALM      30.17R
BAD AXE        CLEAR     38  31  75 CALM      30.19S
CARO           CLEAR     37  32  81 CALM      30.18R
DETROIT CITY   CLOUDY    46  31  55 E8        30.19R
DETROIT        CLOUDY    49  37  63 CALM      30.18S
FLINT          CLEAR     46  36  68 CALM      30.19R
GROSSE ILE     CLOUDY    48  43  81 CALM      30.17S
HILLSDALE      CLOUDY    47  40  76 E8        30.15S
HOWELL         CLOUDY    47  38  71 NE3       30.17R

CITY           SKY/WX    TMP DP  RH WIND       PRES   REMARKS
JACKSON        CLOUDY    49  38  65 E7        30.15F
LAMBERTVILLE   CLOUDY    49  40  73 E3        30.17F
LANSING        CLOUDY    46  38  73 CALM      30.17S
LAPEER         FAIR      44  32  63 E3        30.18R
MASON          CLOUDY    47  39  75 CALM      30.16S
MONROE         CLOUDY    47  41  77 S5        30.17S
MT. CLEMENS    CLOUDY    45  34  66 E5        30.18R
PONTIAC        CLOUDY    48  31  51 CALM      30.17R
PORT HOPE        N/A     37  31  78 CALM      30.18R
PORT HURON     CLOUDY    43  30  61 CALM      30.19R
TRI CITIES     CLEAR     42  35  76 NE7       30.19R
MIDLAND        FAIR      39  34  81 CALM      30.18R
TROY           CLOUDY    50  31  49 E7        30.19S
SAGINAW HB     CLEAR     41  36  81 NE3       30.17S
$$
MIZ043>046-050>051-056>058-064>065-071>073-077>080-300400-
SOUTHWEST LOWER MICHIGAN

CITY           SKY/WX    TMP DP  RH WIND       PRES   REMARKS
BATTLE CREEK   CLOUDY    48  39  71 E7        30.15F
BENTON HARBOR  CLOUDY    47  41  80 E3        30.13F
BIG RAPIDS     CLEAR     43  32  65 CALM      30.15S
COLDWATER      CLOUDY    49  40  71 E7        30.14F
FREMONT        FAIR      42  35  76 CALM      30.16S
HOLLAND        CLEAR     46  39  76 NE5       30.14F
GRAND RAPIDS   PTCLDY    44  38  79 E6        30.15F
IONIA          FAIR      44  37  77 NE6       30.15F
KALAMAZOO      CLOUDY    49  39  68 E5        30.14F
LUDINGTON      CLEAR     37  35  93 CALM      30.16S
MARSHALL       CLOUDY    48  40  72 NE3       30.14F
MOUNT PLEASANT CLEAR     42  37  84 CALM      30.18R
MUSKEGON       CLEAR     44  31  60 CALM      30.16S
$$
MIZ016>042-300400-
NORTHERN LOWER MICHIGAN

CITY           SKY/WX    TMP DP  RH WIND       PRES   REMARKS
ALPENA         CLEAR     37  29  72 CALM      30.20R
BEAVER ISLAND  CLEAR     37  33  88 CALM      30.20R
BELLAIRE       CLEAR     44  36  74 CALM      30.17F
CADILLAC       CLEAR     43  32  64 S5        30.14F
CHARLEVOIX     CLEAR     41  32  72 CALM      30.20F
FRANKFORT      CLEAR     49  32  51 NE5       30.14S
GAYLORD        CLEAR     46  29  51 NE5       30.17R
HARBOR SPRINGS CLEAR     44  31  60 NE5       30.18F
HOUGHTON LAKE  CLEAR     42  32  67 E5        30.17S
MANISTEE       CLEAR     37  30  75 E3        30.15S
OSCODA         CLEAR     36  28  74 CALM      30.20R
PELLSTON       CLEAR     39  29  67 CALM      30.19R
ROGERS CITY    CLEAR     34  31  89 CALM      30.20S
TRAVERSE CITY  CLEAR     44  35  70 CALM      30.15S
$$
MIZ007>008-015-300400-
EASTERN UPPER MICHIGAN

CITY           SKY/WX    TMP DP  RH WIND       PRES   REMARKS
KINROSS          N/A     39  30  70 CALM      30.20S
MACKINAC ISLAN CLEAR     38  31  76 NE7       30.19F WCI  33
NEWBERRY       CLEAR     40  31  71 NW5       30.19F
S. S. MARIE    CLEAR     39  31  72 W5        30.18F
MUNISING         N/A     38  35  89 NW7       30.21R WCI  33
$$
MIZ004>006-011>014-085-300400-
CENTRAL UPPER MICHIGAN

CITY           SKY/WX    TMP DP  RH WIND       PRES   REMARKS
MANISTIQUE     CLEAR     42  31  66 N5        30.18F
ESCANABA       CLEAR     45  30  57 N6        30.18S
MENOMINEE      CLEAR     46  28  49 CALM      30.16S
SAWYER-GWINN   CLEAR     35  29  80 NE6       30.18F WCI  30
$$
MIZ001>003-009>011-084-300400-
WESTERN UPPER MICHIGAN

CITY           SKY/WX    TMP DP  RH WIND       PRES   REMARKS
IRON MOUNTAIN  CLEAR     39  27  62 N7        30.16S WCI  34
HOUGHTON       CLOUDY    37  30  75 NE3       30.21S
COPPER HARBOR    N/A     36  32  85 CALM      30.23R
IRONWOOD         N/A     34  34 100 CALM      30.18F
$$

ABBREVIATIONS USED IN REMARKS
   TC - TEMPERATURE IN CELSIUS
  WCI - WIND CHILL INDEX
   HX - HEAT INDEX
  VSB - VISIBILITY




USA.gov is the U.S. government's official web portal to all federal, state and local government web resources and services.